GEFSCGP_500_meanwind_318.txt.gz
Wind_Speed
9 8 7 6 5 4 2 1 1 1 2 4 5 5 6 6 7 7 6 6 6 7 7 5 4 4 4 4 4 3 3 2 2 2 2 1 1 1 1 1 1 1 2 2
10 10 9 8 7 5 3 1 1 1 1 2 3 4 4 5 6 6 6 5 6 6 6 6 4 3 3 4 3 3 2 1 1 1 0 1 0 1 2 2 2 2 3 4
12 12 11 10 9 7 5 4 3 2 1 1 2 3 3 4 5 5 5 5 5 5 5 5 5 4 4 4 3 3 3 2 2 2 2 2 2 3 3 3 3 4 4 5
15 14 13 12 11 9 8 7 5 4 2 2 1 2 3 3 4 4 4 4 4 4 4 4 4 4 4 3 3 3 3 3 3 3 3 4 4 4 4 4 4 5 6 6
17 16 15 13 12 11 10 8 7 5 4 3 3 2 3 3 3 4 4 4 4 4 3 4 4 4 4 4 3 4 4 4 3 3 4 4 4 4 4 4 5 6 7 7
19 18 17 15 14 13 11 10 8 7 6 6 6 4 4 5 4 5 5 4 4 4 4 4 4 5 4 4 4 4 5 5 4 4 4 5 5 5 5 6 7 7 7 7
20 19 18 17 15 14 13 10 8 8 8 8 8 6 6 6 5 6 6 6 5 5 5 5 5 5 5 5 5 6 6 6 6 6 6 6 6 7 7 8 8 8 9 9
20 19 19 18 17 16 15 14 12 10 9 9 9 8 8 7 7 7 7 6 6 6 6 6 6 6 6 6 6 7 7 7 8 8 8 8 8 8 9 9 9 9 10 10
21 20 20 20 19 18 17 16 15 13 12 10 10 11 10 10 9 9 9 9 8 8 8 9 8 8 8 8 8 8 9 10 10 10 10 10 10 11 11 11 11 10 11 12
22 21 22 21 20 20 19 17 15 14 13 11 11 10 11 11 11 11 11 10 9 10 11 11 11 11 10 10 10 10 11 11 12 12 12 12 12 13 13 13 12 12 13 13
24 23 23 23 23 21 20 19 17 16 15 12 12 12 13 12 12 12 12 12 11 12 12 12 13 13 13 13 13 13 13 13 13 13 13 13 14 15 15 14 14 15 15 15
24 24 24 24 23 23 22 20 19 18 18 16 14 14 14 14 14 14 14 14 14 13 14 14 14 15 15 15 15 15 15 15 15 15 15 15 16 16 16 16 16 17 17 18
25 25 24 24 24 24 24 23 21 20 19 18 16 16 17 16 16 16 16 16 16 16 16 16 16 17 17 17 17 17 17 17 17 17 17 17 18 18 17 17 17 18 18 19
26 26 25 24 24 25 25 25 23 22 21 21 20 19 20 19 19 19 19 19 19 19 18 18 18 18 19 19 19 19 19 19 19 19 19 20 20 19 19 19 20 20 20 21
27 28 28 27 26 25 26 25 25 25 24 23 23 23 23 22 21 21 21 21 21 21 21 20 20 21 21 21 21 21 21 21 21 21 21 21 22 22 22 21 22 22 23 23
28 28 28 28 27 27 27 27 27 27 27 26 26 26 25 24 24 23 23 23 23 23 23 23 23 23 23 23 24 24 24 23 23 23 23 23 24 24 24 24 24 25 25 25
28 28 28 28 28 28 29 28 28 29 28 28 27 26 25 25 25 25 24 25 25 25 25 25 26 25 26 26 26 25 25 25 24 24 24 25 25 26 26 26 27 27 27 27
29 28 28 28 29 30 30 28 29 29 29 29 29 28 28 27 27 27 26 26 27 27 27 28 28 27 28 28 27 27 27 27 26 26 26 26 27 27 28 28 29 29 29 29
29 29 29 28 29 30 30 29 30 30 30 30 30 30 30 29 29 29 28 28 29 29 29 29 29 29 29 29 28 28 28 28 27 28 29 29 29 29 29 30 31 31 30 30
29 28 29 29 28 28 30 28 28 29 31 30 31 31 31 30 30 30 30 30 30 30 30 30 30 30 30 30 29 29 29 29 30 30 31 32 31 32 33 32 33 32 32 31
28 28 29 29 28 29 29 28 27 29 31 30 30 31 31 32 32 31 31 32 32 32 32 31 31 31 31 31 31 31 31 32 33 33 34 34 34 34 34 34 34 34 33 33
29 29 30 30 29 30 30 29 30 31 30 30 31 31 32 32 31 31 31 32 31 31 31 32 32 32 33 33 33 33 33 34 34 35 35 35 35 36 36 35 35 35 35 35
29 30 31 30 30 31 30 29 30 30 30 30 31 31 32 32 32 32 32 31 32 32 32 32 33 33 33 34 35 35 34 35 36 36 37 37 37 37 37 37 37 36 37 37
29 29 30 30 30 30 29 29 30 30 30 31 31 31 31 32 32 32 32 32 32 33 34 34 34 35 35 35 36 36 36 36 36 37 37 38 38 37 37 37 37 38 38 37
29 29 29 29 29 29 29 29 29 29 30 30 29 30 31 32 32 32 32 32 33 34 34 35 35 36 36 36 37 37 38 37 37 37 38 39 39 39 38 37 37 37 37 37
28 28 28 29 29 29 28 28 28 29 30 30 30 31 31 32 32 32 32 32 33 34 35 35 35 36 36 36 37 38 38 38 38 39 39 39 40 40 38 38 37 38 37 37

GEFSCGP_500_meanwind_324.txt.gz
Wind_Speed
4 3 2 4 5 2 0 1 3 4 5 4 3 4 5 6 7 8 9 9 9 9 9 9 8 8 7 6 6 6 5 5 5 5 5 6 6 6 6 5 5 5 5 5
6 4 3 4 4 3 3 3 4 4 6 6 5 4 4 5 6 7 8 8 8 9 9 10 9 8 7 7 6 6 6 6 6 6 6 6 6 7 7 6 6 6 6 6
8 5 6 7 6 5 4 4 5 5 4 5 6 6 4 4 7 6 6 8 8 9 9 9 9 8 8 7 7 7 7 7 7 7 8 8 7 7 7 7 7 7 6 7
10 8 9 8 8 7 7 7 7 5 3 5 6 7 7 5 6 6 6 6 7 8 8 8 8 8 8 8 7 7 7 7 7 8 8 9 8 7 7 7 8 7 6 6
11 11 11 11 11 10 9 8 6 5 5 6 6 8 9 7 7 8 6 7 7 7 7 7 8 8 9 8 7 7 8 8 9 9 9 9 9 8 7 7 7 8 7 7
13 12 12 12 12 11 9 7 6 6 8 7 6 8 10 9 9 8 8 9 8 8 8 7 7 8 9 9 8 8 9 9 9 9 10 10 9 9 9 8 8 8 8 9
13 12 12 12 11 11 9 7 6 8 7 8 8 11 12 11 11 11 10 10 10 9 8 8 8 8 9 9 9 9 9 9 9 10 10 11 10 10 10 10 10 10 11 11
13 14 13 13 13 13 12 10 10 11 10 11 10 13 13 11 12 11 12 11 11 11 10 9 9 9 9 10 10 10 10 10 10 10 11 11 11 11 11 11 11 12 12 13
14 15 15 16 16 14 13 12 11 12 12 12 13 13 14 13 12 12 12 12 12 12 12 11 11 10 11 11 12 12 12 12 12 12 12 12 12 13 13 13 13 13 14 15
18 18 16 17 18 16 14 14 13 13 13 14 14 15 15 14 13 14 13 14 14 14 14 13 13 13 13 13 13 13 13 14 14 14 14 14 14 14 14 15 15 15 15 16
21 20 18 17 18 17 16 16 17 16 16 15 15 18 16 15 15 15 15 15 15 14 15 15 14 15 15 15 15 14 14 15 15 15 15 15 15 16 16 16 17 17 17 17
23 21 20 19 19 19 19 19 19 19 19 18 17 19 16 16 16 17 18 18 16 15 16 16 16 16 16 16 16 15 16 16 16 16 16 16 16 16 17 18 19 19 18 19
23 23 21 19 20 20 21 20 20 19 19 20 19 22 20 18 19 19 20 20 18 17 18 18 18 19 17 16 17 17 17 18 18 18 18 18 18 19 19 20 20 20 20 21
24 24 24 22 20 20 21 21 20 20 20 21 21 21 23 21 21 21 21 21 21 21 20 20 20 20 20 20 19 19 19 20 20 21 20 20 20 20 21 22 22 22 23 23
25 25 24 24 22 23 24 24 24 23 21 21 22 23 25 24 22 22 23 24 25 25 24 23 22 22 22 22 22 22 22 22 22 22 22 22 22 22 23 23 24 24 24 24
26 25 26 26 25 24 25 25 25 25 23 23 25 26 25 26 25 24 25 25 26 27 26 24 24 23 24 24 24 24 24 23 23 24 24 24 24 24 25 25 25 25 25 26
27 27 27 26 24 25 25 24 24 25 26 27 28 29 26 27 26 27 29 28 28 28 27 27 26 25 25 25 26 25 25 25 25 25 25 25 26 26 26 26 26 26 26 27
27 27 26 25 24 27 26 24 25 26 27 29 31 31 30 30 29 29 30 29 28 29 29 29 28 28 27 27 28 27 26 26 26 26 26 26 26 26 26 27 28 29 29 29
26 26 26 24 23 24 25 26 25 25 28 29 31 32 29 30 31 31 31 30 29 29 30 29 29 28 28 28 28 28 27 27 27 27 27 28 28 29 29 29 30 30 30 31
26 25 25 24 24 24 26 26 25 26 29 29 30 32 32 32 33 33 32 31 30 30 30 30 30 29 29 29 28 28 28 29 29 29 29 30 30 30 31 31 31 31 32 32
26 26 26 26 26 26 26 26 26 28 30 29 30 30 31 32 34 34 33 32 32 31 31 31 31 30 30 30 30 30 30 30 30 31 32 32 32 33 33 33 33 33 34 34
25 27 28 27 27 28 29 28 28 29 30 30 30 31 31 32 33 33 33 34 33 34 33 33 33 32 32 32 33 33 33 33 33 34 34 34 34 34 35 35 35 36 36 35
26 26 27 29 30 30 30 30 31 31 31 31 31 32 32 32 33 33 34 33 33 33 34 34 33 34 34 35 34 34 34 35 35 36 36 36 36 36 36 37 37 37 37 37
27 27 28 29 30 30 30 31 30 31 32 32 32 32 32 33 32 33 33 34 33 33 34 34 34 34 35 35 35 35 35 36 36 37 37 38 38 38 38 38 38 38 38 38
29 29 30 31 32 31 32 32 32 32 32 32 31 32 32 33 33 33 34 34 34 34 34 35 35 36 36 36 35 35 36 36 36 37 38 38 39 39 39 39 39 39 39 39
29 29 30 32 31 30 31 31 31 32 32 31 32 32 33 34 34 33 33 33 34 35 35 35 35 36 36 36 35 36 36 37 37 38 38 39 39 39 39 39 39 39 39 39

GEFSCGP_500_meanwind_330.txt.gz
Wind_Speed
9 8 6 4 3 3 2 2 2 3 5 6 9 9 8 8 8 10 12 12 11 10 9 8 8 8 7 7 7 7 7 6 6 5 5 5 5 5 4 3 3 3 3 3
9 7 6 4 3 2 3 2 1 3 3 6 8 6 7 8 7 7 9 9 10 10 9 9 8 8 8 7 7 6 6 6 6 6 5 5 5 4 4 4 4 3 3 3
9 7 6 5 3 3 4 2 1 3 3 5 6 5 6 7 7 6 7 8 8 8 9 9 9 8 7 6 5 6 6 6 6 6 5 5 5 4 4 3 3 3 3 3
9 8 7 6 4 3 3 3 3 4 5 5 5 6 5 6 6 6 6 7 7 8 8 7 7 7 6 5 4 5 5 6 6 5 6 5 5 4 4 4 4 4 4 4
10 10 8 7 5 5 4 4 4 5 6 5 5 6 5 6 5 6 6 5 6 6 7 7 5 5 6 5 5 5 5 5 5 6 5 5 4 4 4 4 4 4 5 5
12 11 10 7 6 6 6 7 6 6 7 6 6 6 5 6 6 6 6 5 5 5 6 6 6 6 5 5 5 5 5 5 5 5 5 5 4 4 4 4 5 5 6 7
13 12 10 9 8 7 8 9 9 9 9 8 8 8 8 8 8 8 7 6 5 6 6 6 6 6 5 6 6 5 5 5 5 6 6 5 5 5 5 6 6 7 8 9
13 13 12 11 10 9 9 9 11 11 10 9 10 11 10 10 9 8 7 7 6 6 7 6 5 5 5 7 7 6 7 6 6 7 7 7 7 7 8 8 8 9 10 11
15 14 14 14 13 11 12 12 12 13 13 13 13 13 11 11 10 8 7 8 8 7 7 7 7 7 7 7 8 8 8 8 8 8 8 8 9 9 10 10 11 12 12 13
18 17 16 16 16 14 14 15 15 15 16 16 16 14 13 12 10 11 10 9 10 9 8 9 10 10 9 9 10 9 10 10 10 11 10 10 10 10 11 12 12 14 15 15
19 19 18 18 18 18 17 17 16 16 17 18 18 17 15 14 13 13 12 12 12 11 10 11 11 10 11 11 11 10 11 12 13 12 13 12 12 12 12 13 14 15 16 16
21 21 20 20 19 20 19 18 18 18 18 19 21 20 17 17 16 16 16 15 14 13 12 12 13 14 14 13 13 12 13 14 14 14 15 15 15 14 14 14 15 16 17 17
22 22 22 22 22 22 22 21 20 20 19 20 22 22 20 20 19 18 18 18 17 17 16 15 15 15 15 14 14 15 15 15 15 15 16 16 17 17 17 17 17 18 19 19
22 23 23 23 24 25 25 24 23 22 22 22 22 22 22 21 21 20 20 20 21 20 18 17 17 18 17 17 17 17 17 17 17 17 17 17 17 18 18 19 19 19 19 20
23 23 23 24 25 26 26 25 24 24 25 24 23 23 23 23 22 23 23 24 23 22 21 21 20 19 19 19 19 19 19 19 19 19 19 19 19 19 19 20 20 20 20 21
24 24 24 25 25 26 27 26 25 25 26 26 26 26 25 25 25 26 26 26 26 25 24 23 23 22 21 22 22 22 22 21 22 22 21 21 20 21 21 22 22 22 22 23
25 25 25 24 25 26 25 25 25 24 24 25 26 26 26 27 27 28 28 27 29 29 28 26 25 24 24 24 24 25 25 25 25 24 23 23 23 23 24 24 24 24 25 25
24 25 25 26 26 26 23 24 24 25 25 25 26 28 28 28 28 28 29 29 29 29 28 28 28 28 27 27 26 26 25 25 25 24 25 25 25 25 26 26 26 27 27 27
25 26 26 26 26 27 24 24 24 24 24 25 26 28 29 29 29 30 30 30 30 29 29 29 29 29 28 27 27 27 27 26 26 26 26 25 25 26 27 28 28 28 28 28
25 25 25 25 26 27 25 24 25 25 25 25 26 27 28 28 29 30 30 30 30 30 30 30 29 28 28 29 29 28 28 27 27 28 29 29 28 28 29 29 30 30 30 29
24 25 25 25 25 26 24 24 24 26 26 26 27 27 28 28 29 29 29 30 30 29 29 30 30 30 30 30 30 29 29 29 29 30 30 30 31 31 31 32 32 32 31 31
25 26 26 26 27 26 25 25 25 25 26 27 28 28 29 29 30 30 30 30 30 30 30 30 31 31 31 30 29 30 30 31 32 32 31 32 32 32 33 33 33 33 33 33
27 27 27 27 27 26 25 25 25 26 26 27 28 29 29 29 29 30 30 31 30 30 32 32 32 30 31 32 31 30 30 31 32 32 32 33 33 34 34 34 33 33 34 34
27 28 28 28 27 27 26 25 26 26 27 28 29 29 29 29 29 29 30 31 31 32 32 32 31 31 31 31 31 31 31 31 32 33 33 34 34 34 35 35 34 34 34 35
28 28 28 28 28 28 26 25 26 27 28 28 27 27 28 29 30 30 31 31 32 32 31 32 31 30 31 31 31 31 31 32 32 33 33 34 35 36 36 36 36 35 35 35
27 28 28 28 28 27 26 26 26 27 27 28 28 28 28 28 29 30 31 31 31 31 31 31 31 32 32 31 31 32 32 32 32 32 33 35 36 37 37 37 37 36 37 37

GEFSCGP_500_meanwind_336.txt.gz
Wind_Speed
8 7 5 4 4 4 2 1 0 2 3 4 6 7 6 7 7 7 8 7 7 7 6 6 5 4 4 4 4 4 4 4 3 3 3 3 3 3 3 2 2 2 2 3
10 9 8 7 6 5 4 3 2 2 2 3 4 5 5 5 6 6 6 7 6 6 6 6 5 4 4 4 4 4 4 4 3 2 3 3 4 4 3 2 3 3 3 3
12 11 10 9 8 7 6 4 4 3 3 3 3 3 4 5 5 5 6 6 6 5 5 5 4 4 4 3 2 2 2 3 2 2 2 3 4 4 4 3 4 4 4 4
13 12 11 9 8 7 6 6 5 4 5 4 3 2 3 4 4 5 5 5 5 4 4 3 3 3 3 2 2 2 2 2 3 3 3 4 4 4 4 4 5 5 5 5
12 12 11 10 9 8 7 7 6 5 5 5 3 4 4 5 4 4 4 5 5 4 3 3 3 4 4 4 3 4 4 4 4 5 5 6 5 5 5 6 6 6 6 7
13 12 12 11 10 9 9 8 8 7 6 6 5 6 6 6 6 6 5 6 6 6 5 5 5 6 5 5 4 4 4 4 5 6 7 7 7 7 7 7 7 7 8 9
15 14 14 13 12 11 10 10 10 10 9 7 8 8 8 9 8 7 7 7 7 7 7 7 7 7 6 6 6 5 5 6 7 8 8 8 9 8 8 9 9 9 10 11
17 16 15 15 14 13 13 13 12 12 12 11 11 11 10 11 11 10 9 9 8 7 7 8 9 9 9 9 8 8 8 8 9 9 10 10 10 10 10 10 11 12 12 12
17 17 16 16 15 15 15 15 14 14 14 14 14 13 12 12 12 12 11 11 10 9 9 9 10 11 11 11 10 10 10 10 10 11 11 12 13 13 13 13 14 14 15 15
18 17 17 17 17 16 16 16 16 16 17 17 16 15 14 13 13 13 14 13 12 12 12 12 13 14 14 13 12 12 12 13 13 13 13 14 14 14 15 15 16 17 16 16
20 19 19 19 19 19 19 19 19 19 20 20 19 18 16 15 14 15 15 15 15 15 15 15 15 16 16 15 15 14 15 15 15 15 15 15 15 15 15 16 16 17 17 17
21 21 21 21 21 21 22 22 22 22 22 21 21 20 18 18 17 17 16 17 16 17 17 17 17 17 18 17 17 18 18 18 17 16 16 16 17 17 17 17 17 18 18 19
21 21 22 22 23 23 23 23 23 22 23 23 23 21 19 20 20 20 19 19 18 18 19 19 20 20 20 20 20 20 21 20 19 19 19 19 19 19 19 19 20 20 21 21
22 23 23 23 24 25 25 25 25 25 25 25 24 23 21 21 21 21 21 21 20 20 21 21 21 22 23 22 22 22 22 22 22 21 21 21 21 21 22 21 22 22 22 22
24 25 24 24 24 25 27 27 27 26 26 26 24 24 23 22 22 22 22 22 22 22 22 22 22 23 24 24 24 24 23 24 24 24 23 23 23 23 24 24 23 23 23 23
25 26 26 26 26 27 27 27 28 29 28 27 26 26 25 25 23 23 23 24 23 24 24 25 26 25 26 26 26 26 25 26 26 26 25 25 25 25 25 25 25 25 25 24
26 26 26 27 28 29 29 27 28 29 29 28 28 27 27 26 25 24 24 24 24 25 26 26 27 26 27 28 28 28 27 28 28 28 28 28 28 27 27 27 27 27 27 26
27 26 26 27 28 30 28 27 27 28 28 28 29 28 28 28 28 27 25 25 25 26 26 27 27 27 28 28 29 29 30 29 29 29 29 29 29 29 29 29 28 28 28 28
27 26 27 27 28 28 26 26 27 27 28 28 29 28 29 29 28 27 26 26 27 27 28 28 29 29 29 30 30 31 31 30 30 30 30 30 30 31 31 31 30 30 29 30
26 27 28 28 29 28 27 27 28 28 28 28 28 28 29 29 29 28 27 27 28 28 28 28 29 29 30 30 31 30 30 30 30 31 31 31 32 32 32 32 32 31 31 31
26 27 28 28 28 28 27 26 26 27 26 26 27 27 28 29 29 28 28 28 29 28 28 29 28 28 29 30 30 30 30 30 30 31 32 32 33 33 33 33 33 32 32 32
27 27 27 27 28 28 26 26 26 27 27 27 27 27 28 29 29 30 29 29 30 30 29 29 30 30 30 30 31 31 30 30 31 31 32 32 33 32 32 33 34 34 33 34
27 27 27 27 27 27 27 27 27 27 27 27 27 28 29 29 29 29 29 30 31 31 30 30 31 31 31 30 30 30 30 31 31 32 32 33 33 32 33 34 33 34 34 34
27 28 28 28 27 27 27 27 27 27 27 27 28 28 29 28 28 29 30 30 31 31 31 32 31 31 30 30 30 30 31 32 32 32 32 33 33 33 34 33 33 33 34 34
27 27 28 27 26 26 26 26 26 27 27 27 27 28 27 28 28 28 29 30 31 31 31 32 31 30 30 30 30 30 30 31 32 32 33 33 33 33 33 32 32 33 34 34
27 27 27 27 27 26 25 26 26 26 26 26 26 27 27 27 28 28 29 29 29 30 31 31 30 29 29 30 29 29 29 30 31 32 32 33 32 32 32 32 32 33 34 35